Weather in Khambi-Irzi

Russia / Chechen Republic     43°14′02″N   45°27′10″E
temp.,
°C
wind,
m/s
gust,
m/s
humid.,
%
clouds,
%
prec.,
mm/h
press.,
hPa
HPBL,
m
16 june, wed
wed1600:00+19nw11860 0.0 100911
03:00+18wsw11870 0.0 101012
06:00+20ene00830 0.0 1010114
09:00+26ene23610 0.0 1009831
12:00+31e34460 0.0 10071492
15:00+33ene44351 0.0 10051714
18:00+29ene57450 0.0 1005329
21:00+22ene12634 0.0 100640
17 june, thu
thu1700:00+19nw01742 0.0 100412
03:00+18wnw01793 0.0 100312
06:00+20w11720 0.0 100388
09:00+27nw33510 0.0 1003630
12:00+29wnw89511 0.0 10061435
15:00+29wnw910506 0.0 10091670
18:00+27w686163 0.0 10111302
21:00+24wnw596693 0.0 1014685
18 june, fri
fri1800:00+22wnw586999 0.1 1017777
03:00+20wsw366998 0.1 1017344
06:00+21wnw256535 0.0 1017391
09:00+24wnw45481 0.0 10171101
12:00+27nw3340100 0.0 10161544
15:00+28wnw223913 0.3 10151839
18:00+27wnw334823 0.0 1015452
21:00+21w22660 0.0 101733
19 june, sat
sat1900:00+19w11730 0.0 101618
03:00+18wsw22770 0.0 101620
06:00+20wnw11695 0.0 1016106
09:00+26ne22520 0.0 1015928
12:00+31ene23400 0.0 10131706
15:00+35ese24310 0.0 10112255
18:00+31ene69360 0.0 1011768
21:00+24ene35510 0.0 1013129
20 june, sun
sun2000:00+20nw117399 0.0 101323
03:00+18wnw2279100 0.0 101227
06:00+21wsw116930 0.0 1013109
09:00+28ne22490 0.0 1012727
12:00+34ene12340 0.0 10101252
15:00+37nne33250 0.0 10091828
18:00+30ne56390 0.0 1011447
21:00+23nnw22450 0.0 101349